GFSCGP_925_spd_003.txt.gz
Wind_Speed
1 4 4 3 3 3 5 3 6 3 3 7 8 8 9 7 9 7 7 9 10 10 8 13 17 21 24 27 28 22 18 11 9 15 17 11 5 2 3 3 3 3 3 4
6 5 2 5 5 6 5 6 4 5 4 6 8 11 8 8 4 4 9 10 11 12 11 14 18 22 24 27 24 20 16 18 19 19 11 4 4 4 3 1 3 4 4 5
6 2 3 5 4 7 4 7 4 5 7 8 7 5 4 6 7 7 8 9 11 14 15 13 17 17 18 20 20 21 21 22 12 7 7 6 5 4 1 2 3 6 11 13
6 2 4 4 3 1 4 4 11 11 2 3 3 3 1 2 5 6 7 8 10 13 13 14 13 15 19 21 20 19 17 11 8 5 4 4 4 4 5 5 5 9 12 14
0 3 3 5 2 1 4 6 7 3 4 3 2 2 3 5 7 9 9 7 9 10 13 14 19 20 19 20 15 15 13 10 8 9 11 12 13 12 10 7 9 13 15 18
3 2 2 3 2 4 10 6 6 3 2 0 1 2 5 10 14 13 9 8 10 11 10 12 12 13 15 16 15 16 15 16 17 19 19 17 13 10 10 12 14 16 21 23
4 2 1 1 5 3 5 4 2 1 1 3 1 2 5 15 12 16 16 14 13 10 8 7 10 10 10 15 17 21 22 21 18 14 12 11 11 12 13 14 15 19 19 20
4 0 2 4 2 4 2 4 4 5 4 2 1 5 3 3 12 15 16 14 11 10 8 7 7 10 14 18 20 21 19 18 16 14 13 12 12 12 13 15 17 19 19 20
3 1 2 3 1 1 3 2 2 6 2 1 2 3 6 1 10 11 13 13 13 11 8 8 11 13 15 18 18 20 19 18 14 11 10 10 12 15 17 20 22 22 22 18
5 3 1 1 2 6 1 6 3 2 4 3 2 5 5 6 14 12 13 14 12 9 10 10 12 13 13 16 17 17 15 14 11 9 10 11 13 16 20 22 23 22 20 15
3 3 2 1 0 4 3 2 5 4 1 3 2 4 4 8 13 16 16 13 13 12 13 11 12 12 15 16 16 16 12 8 8 8 8 10 13 16 18 20 20 19 16 12
1 4 3 1 0 1 1 3 4 3 4 1 0 5 1 6 8 9 9 9 11 13 13 13 15 16 16 15 14 12 8 5 5 5 7 8 11 13 16 18 18 16 13 10
5 1 3 3 2 1 2 2 4 5 2 5 3 3 0 3 4 8 11 11 12 14 13 12 15 15 15 13 11 8 4 1 1 4 5 7 9 13 15 17 18 16 13 11
5 3 4 7 3 1 4 4 4 3 3 4 6 4 4 5 7 7 9 12 15 14 13 12 12 14 13 12 11 6 6 4 3 4 6 7 9 13 15 18 18 16 13 12
2 4 2 1 1 1 2 4 8 7 4 6 4 8 6 9 12 11 9 12 14 14 12 11 12 16 16 14 11 9 6 5 6 8 9 9 11 14 16 20 20 16 13 9
2 4 2 4 1 3 3 5 7 6 3 10 4 11 9 1 7 11 14 15 15 14 13 12 15 18 13 12 11 10 8 6 8 11 12 12 12 15 17 21 20 16 14 11
2 6 3 3 2 2 5 9 10 5 5 7 8 8 5 6 11 15 16 16 15 14 14 13 16 19 19 16 14 10 7 7 11 13 15 14 15 17 17 21 19 14 14 13
5 4 2 2 1 1 4 2 2 9 6 12 4 4 6 3 3 7 13 16 15 14 13 13 17 17 18 16 13 11 8 11 14 16 16 16 17 17 17 20 16 14 14 13
3 4 3 3 3 5 4 3 5 6 5 10 12 5 3 4 2 6 13 13 15 14 15 15 18 18 15 17 13 10 10 13 12 13 17 18 19 19 17 17 15 15 14 10
4 5 3 3 2 4 4 2 3 2 4 2 8 5 7 8 4 6 12 14 13 12 11 12 14 13 13 12 9 8 8 8 13 16 16 18 19 18 16 16 16 15 13 11
2 3 3 2 3 7 6 1 2 3 4 1 6 7 11 7 6 2 4 7 16 14 14 14 12 10 10 8 7 5 7 12 13 14 17 20 20 18 18 18 15 13 12 9
5 5 3 3 1 6 5 2 5 4 2 2 6 9 13 12 6 4 4 7 12 15 16 17 17 12 9 8 4 6 10 12 12 17 20 20 18 18 20 14 11 10 8 7
3 4 3 7 4 4 5 4 2 2 3 3 3 6 10 7 7 7 7 9 12 16 15 15 13 11 6 2 4 7 11 10 15 19 18 15 16 18 13 9 8 6 6 7
3 3 3 1 2 7 10 9 8 7 10 6 7 6 9 12 10 8 9 10 14 14 14 9 8 5 2 2 6 8 8 13 17 14 14 14 15 15 9 8 8 7 8 8
3 6 4 4 8 5 7 8 10 8 6 8 6 6 9 10 11 12 12 11 16 14 5 7 6 4 2 5 7 8 11 15 10 9 12 14 14 14 11 9 8 10 10 8
6 6 4 5 8 4 6 4 3 4 6 6 6 3 4 8 12 16 11 14 13 10 10 8 5 3 4 6 10 11 11 7 8 10 10 14 16 14 12 11 11 13 12 9

GFSCGP_925_spd_006.txt.gz
Wind_Speed
5 6 9 13 5 3 7 8 13 9 5 6 6 7 5 6 8 9 10 12 12 11 11 11 12 16 19 20 20 19 15 9 5 5 7 6 3 3 4 4 5 4 3 4
6 5 4 5 5 6 6 10 9 6 4 3 8 7 6 4 5 6 10 10 11 11 11 13 15 18 20 21 18 14 12 10 9 8 6 2 2 4 5 4 3 4 5 5
7 7 5 7 8 9 6 6 10 7 7 4 10 7 7 5 6 7 6 7 9 12 13 13 17 18 18 18 16 14 13 12 8 4 3 4 5 4 1 3 4 5 7 9
6 4 6 8 6 2 7 3 9 13 12 8 7 5 8 8 8 9 10 10 12 13 14 15 18 17 17 15 14 16 15 9 6 5 7 8 6 4 4 5 6 8 10 12
4 7 7 6 3 1 3 11 10 8 7 6 10 8 10 9 12 13 12 13 13 14 14 14 17 18 18 16 16 15 14 11 10 11 10 8 7 6 5 7 11 13 15 16
6 2 2 3 5 2 13 11 7 3 3 7 3 7 7 11 16 16 15 14 14 14 14 16 18 17 16 14 14 14 15 14 13 13 12 11 9 8 9 11 13 15 18 19
7 4 5 5 11 8 7 11 5 6 6 8 1 6 12 7 8 18 20 17 17 16 16 15 17 18 16 14 14 15 15 15 12 12 11 11 10 8 8 11 13 16 17 18
10 6 6 3 2 6 9 7 4 5 6 6 3 7 3 1 9 15 19 18 18 17 16 16 19 17 17 16 15 16 15 14 12 11 11 9 7 7 8 10 12 14 16 17
5 4 4 2 2 3 5 7 3 2 0 4 6 6 9 6 10 15 20 19 19 18 17 16 15 16 17 18 17 16 15 14 11 9 8 6 5 5 7 10 13 14 15 16
4 4 2 5 3 7 3 8 3 3 3 5 4 7 7 9 14 18 20 20 19 18 17 14 16 17 18 19 17 16 15 14 12 9 6 4 3 4 8 12 14 14 15 15
5 2 5 3 6 6 4 4 1 0 2 3 3 1 3 1 11 19 21 20 19 18 17 15 17 18 19 18 17 16 14 13 12 9 5 3 2 5 8 11 13 14 14 14
3 2 4 7 3 2 2 3 6 4 4 0 2 4 3 1 4 12 18 18 17 17 16 16 19 20 20 19 18 16 15 13 10 8 6 2 2 4 7 11 13 13 14 13
6 4 4 5 5 4 7 6 3 5 1 5 3 2 3 3 6 10 13 14 14 15 16 16 20 21 21 20 18 16 14 11 9 7 4 1 2 4 8 11 13 14 14 13
3 3 5 7 0 1 6 11 10 8 4 4 8 10 7 7 8 9 12 15 17 17 17 16 17 21 21 21 18 15 13 11 8 5 4 5 5 6 8 11 13 14 13 12
3 5 4 1 1 3 4 8 13 15 12 7 7 11 7 6 8 8 9 13 15 17 18 18 17 20 22 21 17 13 13 10 8 6 6 7 7 8 9 11 14 15 13 12
1 3 3 4 2 2 6 10 11 15 14 15 16 19 13 7 5 8 11 14 16 16 18 18 18 22 22 21 17 15 12 10 8 7 8 9 9 10 11 13 14 15 14 13
3 6 4 3 1 2 5 15 17 11 11 12 12 11 4 6 9 10 12 14 16 16 18 19 19 21 20 21 16 15 12 10 9 8 9 10 11 11 13 13 14 15 13 13
5 4 1 1 2 3 1 1 2 12 15 13 16 9 7 5 3 5 9 13 15 17 18 17 18 18 19 19 15 13 12 10 8 8 10 10 11 13 14 14 15 15 13 13
1 4 3 3 4 6 9 4 4 5 5 4 12 10 4 2 4 10 11 14 15 15 17 18 17 16 18 18 16 14 12 9 9 8 9 12 12 14 15 16 16 16 14 13
4 3 1 3 3 4 3 3 0 2 6 6 2 2 6 5 4 6 9 13 13 16 17 16 16 16 18 16 15 16 12 9 7 9 10 11 12 14 17 17 17 16 14 13
2 1 4 4 4 5 1 1 3 3 3 3 2 3 7 7 8 4 1 8 14 16 17 17 18 18 16 14 16 13 9 7 7 8 9 12 13 15 17 17 17 17 14 11
4 5 3 2 3 4 5 5 3 3 2 4 4 5 9 12 6 6 4 4 8 13 13 15 14 13 13 11 9 8 6 5 6 8 10 14 14 13 14 16 17 13 11 9
3 3 1 6 1 3 8 6 3 3 7 8 8 9 8 11 12 9 7 6 8 12 13 14 15 13 9 7 5 4 5 5 7 9 12 13 12 13 13 13 11 10 9 8
4 4 3 2 3 9 9 10 11 11 11 11 11 11 11 12 12 10 7 7 10 12 13 14 16 12 7 2 2 4 4 6 9 11 11 11 10 10 10 9 9 11 9 9
1 7 4 5 11 8 8 8 7 7 8 9 9 9 10 10 9 6 7 8 12 13 12 11 10 4 4 3 4 5 6 8 9 9 9 10 9 8 11 11 11 11 11 11
6 5 4 5 8 5 8 5 6 9 10 10 10 9 4 4 0 5 8 12 12 13 11 9 3 2 3 4 6 7 8 8 7 8 10 10 10 10 10 10 11 14 16 14

GFSCGP_925_spd_012.txt.gz
Wind_Speed
7 5 5 7 7 2 8 16 16 14 10 10 13 14 16 14 19 17 12 14 13 11 13 18 20 21 25 26 23 21 19 15 13 16 17 16 16 13 13 10 10 8 9 8
4 7 7 11 8 15 14 13 9 10 6 10 10 13 16 13 12 12 14 17 16 15 15 15 15 23 24 25 24 21 20 15 14 14 14 12 19 17 13 10 10 8 7 7
3 11 9 13 16 18 14 3 7 7 8 7 8 1 13 15 11 12 13 12 15 16 15 12 15 15 18 26 25 21 18 16 12 16 12 11 12 11 13 10 10 9 7 7
5 17 17 15 15 14 7 13 6 8 6 10 13 6 10 16 14 13 13 13 13 15 14 13 14 16 18 23 21 22 20 16 12 9 15 13 12 14 11 8 8 6 6 7
4 13 14 10 6 5 7 15 9 12 11 2 13 6 6 14 13 15 12 12 12 13 14 15 18 16 16 22 20 19 20 15 12 12 13 13 15 13 11 8 5 5 7 7
5 12 9 6 5 2 8 8 15 10 9 2 8 10 7 12 23 4 12 9 9 12 13 14 23 23 24 23 20 22 19 16 15 15 16 18 15 11 9 5 3 6 7 8
7 17 4 9 7 5 8 9 7 3 5 7 13 9 8 20 14 14 20 16 13 11 13 15 18 23 22 21 21 20 20 19 17 17 17 17 14 11 9 5 3 4 6 8
11 14 11 9 9 6 14 10 4 6 4 10 5 4 4 16 24 29 26 15 14 13 11 11 15 19 19 19 19 20 22 20 20 19 18 15 13 11 9 6 3 0 4 7
4 4 11 2 6 3 5 9 8 4 16 6 4 14 15 8 10 6 17 15 15 13 12 14 18 20 23 22 22 22 23 22 21 20 17 15 13 13 10 6 3 2 4 7
11 7 20 6 4 5 6 9 3 3 3 5 8 9 3 4 5 2 12 14 14 13 13 11 16 20 22 23 22 22 23 24 23 21 17 16 15 12 9 6 3 2 6 7
7 19 7 7 8 10 7 8 8 7 4 1 4 2 7 7 5 5 6 13 13 14 13 13 15 21 23 24 23 22 22 24 24 19 18 18 16 14 10 7 4 3 6 8
8 3 3 8 5 4 9 9 12 3 5 2 0 6 5 4 3 2 4 9 15 15 15 14 17 20 21 22 22 24 22 23 22 18 20 17 16 13 10 7 4 5 6 8
2 3 4 8 8 7 8 12 9 4 3 4 3 4 4 3 1 3 4 6 9 14 15 14 16 17 18 19 20 22 22 21 19 20 18 17 17 13 9 6 5 6 7 9
4 5 8 7 11 7 13 12 12 11 3 3 7 14 8 11 9 7 5 6 6 10 11 13 13 16 19 19 20 20 21 18 19 18 17 19 17 12 7 5 7 8 8 9
2 7 11 14 15 2 12 7 11 13 10 10 10 14 11 9 5 3 3 7 6 9 13 12 11 11 19 20 21 21 21 20 18 16 19 14 11 8 6 7 9 10 9 11
4 2 4 3 10 14 12 14 13 14 12 13 14 13 9 9 8 7 6 5 3 7 10 5 5 9 16 19 21 22 21 20 18 19 15 8 5 5 2 8 12 13 14 14
7 3 2 2 5 7 5 8 15 15 14 10 10 9 7 2 1 6 5 6 3 6 7 6 3 7 12 18 21 22 21 20 18 17 12 9 5 0 16 12 15 14 15 15
4 3 2 1 1 1 9 1 5 5 9 11 12 9 6 12 10 6 8 6 6 1 4 4 4 8 14 15 19 22 21 19 18 14 8 3 6 9 13 12 14 16 15 14
6 4 1 2 4 7 10 2 2 1 3 11 9 11 11 10 7 5 13 10 7 7 3 6 8 12 13 15 18 23 18 17 15 10 4 6 11 8 14 12 12 14 17 16
3 4 1 3 2 4 1 4 3 1 3 8 8 8 7 6 3 4 9 11 10 10 11 10 9 8 12 14 14 18 13 10 10 2 3 5 14 18 14 14 14 15 15 15
3 0 4 3 2 5 2 4 2 2 3 6 5 6 7 5 5 9 8 4 7 14 17 14 7 13 7 10 13 15 14 11 8 6 6 9 15 12 13 14 12 14 17 17
5 5 3 1 2 6 5 4 2 4 3 7 6 6 5 6 6 7 8 10 6 9 14 16 25 26 26 20 16 17 16 10 7 5 7 14 12 11 12 15 17 16 17 19
2 4 2 7 3 4 5 4 4 1 2 4 4 6 7 8 9 9 9 10 8 8 18 24 23 25 26 26 23 21 14 8 5 7 9 10 11 11 11 12 16 15 17 17
3 4 1 2 3 6 8 3 4 2 3 6 8 8 7 7 9 10 9 9 15 19 21 18 21 20 19 18 17 13 7 1 8 10 11 10 10 11 13 14 12 13 15 14
1 8 7 6 8 7 1 10 10 8 7 8 10 11 12 9 9 9 12 13 17 20 19 19 18 16 13 10 8 4 6 9 9 10 11 11 12 14 13 14 12 12 15 17
6 4 3 3 8 3 7 11 8 10 11 10 9 12 15 14 13 17 13 17 16 14 13 13 11 8 6 4 6 6 6 8 10 11 12 12 12 13 15 17 17 11 14 17

GFSCGP_925_spd_015.txt.gz
Wind_Speed
4 2 5 9 2 6 4 2 7 8 10 6 8 10 11 6 8 11 8 6 8 10 16 29 33 38 38 35 32 30 28 23 20 20 21 22 22 24 17 14 13 13 13 9
0 4 7 1 9 7 9 7 10 10 6 5 2 7 12 11 7 15 14 19 20 7 11 19 29 34 38 38 35 31 26 23 23 23 27 27 28 20 15 16 13 9 6 5
3 4 5 4 13 6 4 6 3 5 3 3 5 5 3 3 8 11 20 25 19 19 17 12 22 33 34 38 37 34 28 22 24 23 27 26 25 22 21 19 14 12 9 6
5 5 6 8 11 8 3 4 6 3 5 2 5 1 5 5 9 6 20 20 15 12 13 12 15 24 31 33 37 34 29 22 27 31 33 34 30 24 23 19 14 8 3 2
6 2 6 10 13 6 6 7 2 2 4 7 4 4 5 1 12 13 6 8 10 15 17 13 15 24 31 34 33 31 27 29 22 24 26 26 29 26 23 16 9 5 2 1
7 6 3 4 6 6 2 2 3 3 3 2 7 6 4 10 18 9 3 7 8 13 10 11 21 27 28 29 29 30 31 25 26 25 25 29 30 25 18 12 8 6 5 2
4 5 5 5 3 3 1 3 3 4 5 3 13 4 10 12 15 13 12 8 4 10 12 12 12 19 28 23 32 32 30 26 24 25 27 27 24 19 14 12 8 6 5 1
4 5 6 3 5 6 3 6 5 5 1 5 4 4 6 15 19 14 12 7 5 8 9 13 17 20 22 30 32 31 30 27 24 23 21 19 17 15 13 12 8 5 2 2
4 1 7 14 10 4 3 1 5 6 4 2 4 9 6 9 7 6 8 6 7 8 8 13 12 22 27 31 28 30 30 27 24 22 20 18 17 17 15 11 7 5 0 3
6 3 1 13 14 8 4 3 5 3 5 4 3 4 1 4 7 11 7 8 9 9 9 8 15 22 28 31 27 23 28 28 27 24 22 19 17 15 12 10 8 5 2 4
6 5 5 6 9 9 1 3 3 3 5 4 1 5 3 5 3 11 13 14 14 13 12 11 17 25 33 33 30 26 27 30 28 25 22 16 14 13 11 10 7 6 3 4
7 5 3 11 14 7 6 4 6 5 4 2 4 5 3 6 3 5 8 13 14 15 14 13 21 26 28 32 35 33 28 34 31 28 20 17 16 15 11 10 9 5 6 4
2 1 2 6 5 6 4 5 4 4 3 5 5 5 2 5 4 2 4 6 9 12 11 13 14 22 27 28 32 36 30 35 34 28 21 21 18 16 14 11 7 8 5 6
6 2 6 6 7 3 3 5 6 5 4 3 5 5 11 6 8 7 4 3 8 9 14 13 13 15 27 32 35 37 33 34 34 27 26 25 20 19 16 13 9 6 7 8
5 4 1 3 5 5 1 5 7 5 6 7 7 6 10 1 3 2 6 3 2 7 4 7 9 9 21 24 24 31 32 31 31 28 28 21 20 21 15 7 1 9 10 12
1 2 2 2 5 7 4 8 7 6 3 2 5 6 3 7 7 8 7 8 6 5 6 7 5 10 18 23 26 30 31 31 29 29 22 15 19 16 11 5 11 13 14 18
5 5 3 3 4 6 6 7 5 6 5 3 5 7 5 8 8 7 7 7 7 5 6 7 6 9 16 24 30 33 33 32 29 26 19 23 22 13 7 3 9 18 19 21
5 4 3 2 3 2 8 4 3 4 3 7 9 10 8 6 8 12 12 9 9 8 7 6 3 5 16 25 29 31 30 31 28 22 23 19 14 7 7 8 19 15 14 16
3 4 2 4 4 5 8 3 3 3 4 5 8 7 6 5 6 7 7 7 6 7 8 9 8 7 12 19 26 29 29 30 28 27 20 13 11 10 7 9 11 18 17 17
6 5 4 2 4 6 6 2 3 4 2 5 8 7 6 5 4 3 5 3 4 10 18 21 21 21 5 10 22 26 22 24 22 23 20 16 11 6 3 16 19 16 13 14
3 3 5 2 2 7 6 5 1 6 6 3 5 5 7 4 4 4 4 7 14 22 22 26 29 27 26 24 33 29 30 28 22 18 16 12 5 2 13 14 14 15 18 17
6 5 3 3 2 5 5 4 7 6 3 6 5 3 5 4 7 7 8 9 15 18 22 23 27 27 29 28 33 27 27 21 22 19 11 4 5 11 10 10 14 18 19 18
1 6 5 6 5 7 2 7 5 6 5 3 5 6 6 8 7 11 11 15 16 20 20 21 24 25 26 24 25 24 18 15 13 6 4 7 11 10 13 17 16 18 14 14
2 3 4 5 2 5 6 2 7 8 9 11 11 10 9 7 11 13 12 11 16 19 19 20 22 19 17 16 15 13 8 5 5 2 7 11 11 14 15 14 17 18 16 14
5 4 5 2 3 10 9 8 11 13 12 16 16 15 12 14 12 13 12 11 14 14 15 15 15 14 13 10 9 8 7 6 6 9 11 13 15 15 17 16 15 16 15 16
3 6 4 4 1 9 4 8 12 15 13 12 14 15 16 16 12 15 10 12 12 12 13 14 13 11 8 7 7 6 8 8 9 13 14 15 15 15 17 19 21 17 18 17

GFSCGP_925_spd_018.txt.gz
Wind_Speed
1 4 3 6 8 4 5 2 5 5 4 4 8 10 9 9 10 8 7 10 9 16 19 32 34 35 38 36 37 35 33 29 26 24 26 26 24 22 20 18 16 15 12 9
3 4 6 7 1 5 4 6 8 7 9 4 7 9 3 4 14 13 12 11 17 11 14 24 30 32 38 40 36 36 32 29 27 23 27 26 26 23 20 18 16 13 12 8
6 6 1 4 5 3 5 3 4 5 4 6 8 4 3 4 4 1 6 11 15 16 20 19 29 34 34 35 39 38 36 31 28 25 28 27 27 22 21 19 16 14 10 7
4 2 5 2 4 3 6 12 6 2 4 4 2 3 5 5 7 12 14 8 9 8 17 17 25 27 32 37 43 41 38 35 30 27 31 35 32 27 26 23 21 17 11 8
6 4 4 4 6 4 10 7 2 1 5 4 0 5 7 0 8 12 13 17 15 13 18 18 27 34 35 39 41 42 38 32 33 33 35 38 32 29 28 25 21 15 11 7
4 2 5 7 7 8 3 2 5 5 4 3 7 5 5 5 14 9 7 17 18 16 11 9 24 28 28 33 33 30 32 30 34 36 39 41 36 30 29 25 19 14 11 7
1 4 3 2 0 3 4 5 3 3 4 4 4 2 8 8 11 15 10 9 17 15 11 14 15 24 25 29 32 31 32 31 33 34 36 39 35 35 29 23 17 14 12 8
4 4 3 4 4 3 5 7 5 4 3 4 3 5 6 7 9 11 6 8 7 12 14 15 17 24 28 32 36 36 37 34 30 31 31 33 32 27 21 16 13 12 9 5
5 4 5 5 3 5 3 2 3 6 3 1 3 5 8 7 7 2 7 8 8 8 9 12 15 23 27 32 36 39 37 35 33 30 29 27 23 20 17 14 11 9 6 3
6 3 2 4 4 1 3 3 3 3 4 2 4 5 4 2 3 5 4 8 8 8 8 9 14 19 23 31 39 39 38 36 32 29 26 25 22 18 16 13 10 8 4 2
5 3 5 3 4 9 4 3 1 4 4 4 1 5 5 5 7 8 11 9 9 11 13 13 15 25 31 31 35 39 38 36 34 31 29 27 24 21 18 15 14 6 5 1
8 5 4 9 7 7 2 6 5 5 4 0 4 5 4 8 5 6 8 8 8 10 13 15 20 25 28 33 37 41 40 39 39 36 36 32 27 24 21 17 13 11 7 5
8 2 2 6 3 3 6 6 4 5 4 6 5 5 4 4 6 6 8 9 9 11 9 8 11 20 27 32 33 36 42 43 41 40 36 31 27 25 23 20 17 15 10 8
7 4 7 7 7 4 3 3 5 5 4 4 6 5 7 7 9 7 6 4 8 7 8 7 9 15 24 29 32 27 26 29 36 37 35 32 30 28 24 22 21 13 11 10
4 5 4 4 2 2 0 2 1 5 5 6 9 8 9 6 5 6 6 5 6 5 5 5 5 6 15 18 21 21 27 33 37 37 36 33 31 28 26 23 18 10 9 5
2 3 1 4 3 1 3 5 4 4 3 5 5 6 1 7 6 8 7 8 8 6 5 3 5 9 18 23 24 25 30 34 37 37 37 32 30 28 22 21 15 8 3 5
4 6 3 5 4 5 5 7 6 5 3 5 5 4 5 7 8 5 6 8 8 8 6 5 2 7 15 22 30 31 34 34 35 33 28 29 25 29 23 15 12 8 5 9
6 5 3 3 3 2 7 4 5 8 4 7 8 6 9 9 5 7 5 7 8 7 7 7 8 3 14 23 30 31 32 29 24 21 22 25 29 23 18 13 11 8 6 13
2 5 2 4 3 4 6 3 6 5 1 3 7 6 6 6 6 6 1 4 6 5 6 10 14 13 6 12 15 20 22 26 29 27 28 27 26 21 13 9 7 5 15 18
7 5 4 2 4 6 7 4 2 5 2 5 6 5 5 4 3 3 5 7 8 13 15 16 18 19 19 12 18 25 24 24 23 23 25 24 18 14 8 4 5 11 12 15
3 3 5 2 2 7 8 5 2 5 6 6 7 7 5 4 4 2 8 11 15 15 16 18 25 25 22 21 27 29 27 24 23 24 19 15 7 2 3 6 11 12 14 15
6 6 3 3 3 6 6 3 7 6 4 8 5 5 9 8 8 9 11 11 13 16 18 21 24 23 23 24 28 26 26 22 19 14 6 3 5 5 6 9 9 13 16 14
1 6 6 8 6 6 4 5 5 7 6 4 7 5 9 9 7 9 11 11 13 15 17 19 20 22 22 20 20 22 16 11 6 2 2 4 4 8 12 12 15 15 14 16
2 5 4 4 3 2 4 5 6 5 10 7 6 7 10 12 9 11 10 9 12 13 15 17 19 19 18 17 16 13 8 6 5 2 2 7 10 11 12 13 14 14 17 20
5 6 6 3 1 10 8 6 10 12 12 14 13 11 12 15 11 11 10 9 12 14 16 19 19 17 14 11 10 7 6 5 6 8 10 11 13 15 16 16 17 19 19 21
5 7 5 5 8 5 3 4 7 13 11 10 15 13 12 14 12 14 9 13 14 15 16 15 14 11 8 7 8 9 10 11 12 14 16 16 17 18 19 21 24 24 24 22